Location: Clyde
(45.1830°S, 169.3170°E)
Time: 09:53:27
(UTC+12:00)

Cosmos 1943 Rocket - Pass Details

Date: 14 May 2021
Orbit: 813 x 842 km, 71.0° (Epoch: 15 June)

Event Time Altitude Azimuth Distance (km) Brightness Sun altitude
Rises 19:08:32 0° 200° (SSW) 3,421 5.5 -18.2°
Reaches altitude 10° 19:11:21 10° 188° (S) 2,485 4.6 -18.7°
Enters shadow 19:15:55 28° 135° (SE) 1,549 3.1 -19.5°
